KE8CZD Weather Reports


time (UTC)temp
C
wind
direction
speed
KPH
gust
KPH
rain 1hr
cm
rain 24hr
cm
rain mn
cm
humidity
%
barometer
mb
20260508214244 18 263 1.6 8.0 0.00 0.03 0.03 23 1002.8
20260508213644 18 227 1.6 8.0 0.00 0.03 0.03 23 1002.8
20260508213044 18 252 1.6 8.0 0.00 0.03 0.03 24 1002.9
20260508212444 18 256 0.0 8.0 0.00 0.03 0.03 25 1003.1
20260508211844 18 302 0.0 8.0 0.00 0.03 0.03 25 1003.0
20260508211244 18 303 1.6 16.1 0.00 0.03 0.03 24 1002.9
20260508210644 17 284 1.6 11.3 0.00 0.03 0.03 24 1003.1
20260508210044 17 266 1.6 11.3 0.00 0.03 0.03 24 1003.2
20260508205444 17 131 3.2 11.3 0.00 0.03 0.03 26 1003.1
20260508204844 17 158 1.6 8.0 0.00 0.03 0.03 26 1003.2
20260508204244 17 292 0.0 3.2 0.00 0.03 0.03 26 1003.3
20260508203644 17 170 0.0 3.2 0.00 0.03 0.03 26 1003.5
20260508203044 18 293 1.6 11.3 0.00 0.03 0.03 26 1003.5
20260508202444 18 285 1.6 11.3 0.00 0.03 0.03 26 1003.6
20260508201844 18 292 1.6 11.3 0.00 0.03 0.03 26 1003.6
20260508201244 18 135 3.2 16.1 0.00 0.03 0.03 26 1003.7
20260508200644 18 304 3.2 16.1 0.00 0.03 0.03 26 1003.9
20260508200044 18 285 0.0 8.0 0.00 0.03 0.03 27 1003.9
20260508195444 18 283 3.2 8.0 0.00 0.03 0.03 24 1003.9
20260508194844 19 44 0.0 8.0 0.00 0.03 0.03 24 1003.9
20260508194244 18 186 1.6 8.0 0.00 0.03 0.03 24 1004.1
20260508193644 18 180 0.0 8.0 0.00 0.03 0.03 24 1004.1
20260508193044 18 184 0.0 3.2 0.00 0.03 0.03 24 1004.4
20260508192444 18 339 0.0 8.0 0.00 0.03 0.03 23 1004.5
20260508191844 18 286 0.0 8.0 0.00 0.03 0.03 24 1004.6
20260508191244 17 275 3.2 11.3 0.00 0.03 0.03 23 1004.8
20260508190644 18 164 4.8 16.1 0.00 0.03 0.03 23 1004.7
20260508190044 18 306 0.0 8.0 0.00 0.03 0.03 23 1004.6
20260508185444 18 317 1.6 8.0 0.00 0.03 0.03 24 1004.9
20260508184844 18 153 3.2 16.1 0.00 0.03 0.03 25 1005.0
20260508184244 17 119 1.6 11.3 0.00 0.03 0.03 26 1005.0
20260508183645 17 250 0.0 8.0 0.00 0.03 0.03 25 1005.1
20260508183044 17 280 1.6 8.0 0.00 0.03 0.03 26 1005.3
20260508182444 17 243 1.6 8.0 0.00 0.03 0.03 25 1005.3
20260508181844 17 277 1.6 11.3 0.00 0.03 0.03 25 1005.4
20260508181244 17 259 1.6 11.3 0.00 0.03 0.03 25 1005.5
20260508180644 17 244 1.6 11.3 0.00 0.03 0.03 25 1005.7
20260508180044 16 243 1.6 11.3 0.00 0.03 0.03 27 1005.7
20260508174844 16 350 0.0 3.2 0.00 0.03 0.03 28 1006.0
20260508174244 16 188 1.6 11.3 0.00 0.03 0.03 28 1006.2
20260508173644 15 212 1.6 8.0 0.00 0.03 0.03 28 1006.3
20260508173044 16 301 1.6 11.3 0.00 0.03 0.03 27 1006.6
20260508172444 15 280 0.0 8.0 0.00 0.03 0.03 29
20260508171844 15 332 0.0 11.3 0.00 0.03 0.03 30 1006.8
20260508171244 15 10 0.0 3.2 0.00 0.03 0.03 30 1006.7
20260508170645 16 200 3.2 11.3 0.00 0.03 0.03 29 1006.9
20260508170044 15 296 0.0 8.0 0.00 0.03 0.03 30
20260508165444 15 259 0.0 3.2 0.00 0.03 0.03 31 1007.0
20260508164844 15 275 1.6 11.3 0.00 0.03 0.03 31 1007.2
20260508164244 15 198 1.6 8.0 0.00 0.03 0.03 31 1007.4
20260508163644 14 232 1.6 8.0 0.00 0.03 0.03 31
20260508163044 14 292 1.6 11.3 0.00 0.03 0.03 32 1007.4
20260508162444 13 10 1.6 8.0 0.00 0.03 0.03 32
20260508161844 14 275 1.6 8.0 0.00 0.03 0.03 32 1007.6
20260508161244 14 192 1.6 11.3 0.00 0.03 0.03 32 1007.6
20260508160644 13 190 1.6 11.3 0.00 0.03 0.03 33 1007.7
20260508160044 13 284 1.6 8.0 0.00 0.03 0.03 35 1007.7
20260508155444 13 258 1.6 8.0 0.00 0.03 0.03 37 1007.8
20260508154844 13 295 1.6 8.0 0.00 0.03 0.03 39 1007.9
20260508154243 13 327 0.0 8.0 0.00 0.03 0.03 40 1008.0
20260508153644 12 347 0.0 3.2 0.00 0.03 0.03 38
20260508153044 12 270 0.0 3.2 0.00 0.03 0.03 38 1008.0
20260508152444 12 255 0.0 3.2 0.00 0.03 0.03 39 1008.2
20260508151844 11 284 1.6 11.3 0.00 0.03 0.03 40 1008.3
20260508151244 12 16 1.6 8.0 0.00 0.03 0.03 42 1008.2
20260508150644 11 281 0.0 8.0 0.00 0.03 0.03 42 1008.2
20260508150044 11 193 0.0 8.0 0.00 0.03 0.03 42 1008.3
20260508145444 11 61 0.0 3.2 0.00 0.03 0.03 40 1008.5
20260508144844 11 260 0.0 8.0 0.00 0.03 0.03 42 1008.6
20260508144244 11 274 0.0 8.0 0.00 0.03 0.03 43 1008.5
20260508143644 11 261 0.0 3.2 0.00 0.03 0.03 44 1008.6
20260508143044 11 154 1.6 8.0 0.00 0.03 0.03 43 1008.6
20260508142444 11 219 0.0 3.2 0.00 0.03 0.03 47 1008.6
20260508141844 11 239 0.0 3.2 0.00 0.03 0.03 49 1008.7
20260508141243 11 0 0.0 0.0 0.00 0.03 0.03 51 1008.6
20260508140644 11 146 0.0 3.2 0.00 0.03 0.03 52 1008.8
20260508140043 11 187 0.0 8.0 0.00 0.03 0.03 53 1008.8
20260508135444 11 119 0.0 3.2 0.00 0.03 0.03 61 1008.9
20260508134844 10 0 0.0 0.0 0.00 0.03 0.03 64 1009.1
20260508134245 9 178 0.0 3.2 0.00 0.03 0.03 67 1009.2
20260508133644 9 182 0.0 8.0 0.00 0.03 0.03 70 1009.3
20260508133043 9 0 0.0 0.0 0.00 0.03 0.03 73 1009.2
20260508132444 8 212 0.0 3.2 0.00 0.03 0.03 79 1009.3
20260508131843 8 0 0.0 0.0 0.00 0.03 0.03 83 1009.4
20260508131243 7 202 0.0 8.0 0.00 0.03 0.03 87 1009.5
20260508130644 7 197 0.0 3.2 0.00 0.03 0.03 92 1009.3
20260508130043 7 0 0.0 0.0 0.00 0.03 0.03 95 1009.6
20260508125444 7 0 0.0 0.0 0.00 0.03 0.03 97 1009.4
20260508124844 6 0 0.0 0.0 0.00 0.03 0.03 97 1009.4
20260508124244 6 0 0.0 0.0 0.00 0.03 0.03 98 1009.4
20260508123644 6 0 0.0 0.0 0.00 0.03 0.03 98 1009.3
20260508123044 6 0 0.0 0.0 0.00 0.03 0.03 98 1009.4
20260508122444 6 0 0.0 0.0 0.00 0.03 0.03 98 1009.4
20260508121843 5 0 0.0 0.0 0.00 0.03 0.03 98 1009.3
20260508121244 5 0 0.0 0.0 0.00 0.03 0.03 98 1009.4
20260508120643 5 0 0.0 0.0 0.00 0.03 0.03 99 1009.5
20260508120046 5 0 0.0 0.0 0.00 0.03 0.03 99 1009.3
20260508115444 5 0 0.0 0.0 0.00 0.03 0.03 99 1009.3
20260508114843 5 0 0.0 0.0 0.00 0.03 0.03 99 1009.1
20260508114244 4 0 0.0 0.0 0.00 0.03 0.03 99 1009.1
20260508113643 4 0 0.0 0.0 0.00 0.03 0.03 99 1009.1
20260508113043 4 0 0.0 0.0 0.00 0.03 0.03 99
20260508112443 3 0 0.0 0.0 0.00 0.03 0.03 99 1009.1
20260508111843 3 0 0.0 0.0 0.00 0.03 0.03 99 1009.0
20260508111243 3 0 0.0 0.0 0.00 0.03 0.03 99 1009.1
20260508110646 3 0 0.0 0.0 0.00 0.03 0.03 99 1009.1
20260508110043 3 0 0.0 0.0 0.00 0.03 0.03 99
20260508105444 3 0 0.0 0.0 0.00 0.03 0.03 99 1009.0
20260508104843 2 0 0.0 0.0 0.00 0.03 0.03 99 1009.0
20260508104244 2 0 0.0 0.0 0.00 0.03 0.03 99 1009.1
20260508103644 3 0 0.0 0.0 0.00 0.03 0.03 99 1009.0
20260508103044 3 0 0.0 0.0 0.00 0.03 0.03 99 1009.0
20260508102443 3 0 0.0 0.0 0.00 0.03 0.03 99 1009.0
20260508101843 3 0 0.0 0.0 0.00 0.03 0.03 99 1008.9
20260508101243 3 0 0.0 0.0 0.00 0.03 0.03 99 1009.1
20260508100643 3 0 0.0 0.0 0.00 0.03 0.03 99 1009.0
20260508100043 3 0 0.0 0.0 0.00 0.03 0.03 99
20260508095443 3 0 0.0 0.0 0.00 0.03 0.03 99 1008.9
20260508094843 3 0 0.0 0.0 0.00 0.03 0.03 99 1008.8
20260508094243 3 0 0.0 0.0 0.00 0.03 0.03 99 1008.9
20260508093643 3 0 0.0 0.0 0.00 0.03 0.03 99 1008.9
20260508093043 3 0 0.0 0.0 0.00 0.03 0.03 99 1008.9
20260508092444 3 0 0.0 0.0 0.00 0.03 0.03 99 1009.0
20260508091843 3 0 0.0 0.0 0.00 0.03 0.03 99 1008.9
20260508091244 4 0 0.0 0.0 0.00 0.03 0.03 99 1008.9
20260508090644 4 0 0.0 0.0 0.00 0.03 0.03 99 1009.0
20260508090044 4 0 0.0 0.0 0.00 0.03 0.03 99
20260508085445 5 0 0.0 0.0 0.00 0.03 0.03 99 1009.0
20260508084844 5 0 0.0 0.0 0.00 0.03 0.03 99 1008.9
20260508084244 5 0 0.0 0.0 0.00 0.03 0.03 99 1008.8
20260508083645 5 0 0.0 0.0 0.00 0.03 0.03 99 1008.8
20260508083046 5 270 0.0 3.2 0.00 0.03 0.03 99 1008.8
20260508082446 5 0 0.0 0.0 0.00 0.03 0.03 99 1008.8
20260508081844 5 0 0.0 0.0 0.00 0.03 0.03 99 1008.8
20260508081245 5 0 0.0 0.0 0.00 0.03 0.03 99 1008.9
20260508080644 5 0 0.0 0.0 0.00 0.03 0.03 99 1009.0
20260508080044 5 0 0.0 0.0 0.00 0.03 0.03 99 1009.0
20260508075444 5 0 0.0 0.0 0.00 0.03 0.03 99 1009.0
20260508074844 5 0 0.0 0.0 0.00 0.03 0.03 99 1008.9
20260508074244 5 0 0.0 0.0 0.00 0.03 0.03 99 1008.9
20260508073644 5 0 0.0 0.0 0.00 0.03 0.03 99 1009.0
20260508073045 5 0 0.0 0.0 0.00 0.03 0.03 99 1009.0
20260508072444 5 0 0.0 0.0 0.00 0.03 0.03 99 1008.8
20260508071844 5 0 0.0 0.0 0.00 0.03 0.03 99 1008.9
20260508071245 5 0 0.0 0.0 0.00 0.03 0.03 99 1008.9
20260508070644 5 0 0.0 0.0 0.00 0.03 0.03 99 1009.0
20260508070044 5 0 0.0 0.0 0.00 0.03 0.03 99 1009.0
20260508065444 5 0 0.0 0.0 0.00 0.03 0.03 99 1009.1
20260508064844 5 0 0.0 0.0 0.00 0.03 0.03 99 1009.1
20260508064244 5 0 0.0 0.0 0.00 0.03 0.03 99 1009.1
20260508063645 5 0 0.0 0.0 0.00 0.03 0.03 99 1009.0
20260508063044 5 0 0.0 0.0 0.00 0.03 0.03 99 1009.1
20260508062445 5 0 0.0 0.0 0.00 0.03 0.03 99 1009.1
20260508061844 5 0 0.0 0.0 0.00 0.03 0.03 99 1009.1
20260508061244 5 0 0.0 0.0 0.00 0.03 0.03 99 1009.0
20260508060644 5 0 0.0 0.0 0.00 0.03 0.03 99 1009.3
20260508060044 5 0 0.0 0.0 0.00 0.03 0.03 99 1009.2
20260508055444 5 0 0.0 0.0 0.00 0.03 0.03 99 1009.2
20260508054845 5 0 0.0 0.0 0.00 0.03 0.03 99 1009.2
20260508054244 5 0 0.0 0.0 0.00 0.03 0.03 99 1009.3
20260508053645 5 0 0.0 0.0 0.00 0.03 0.03 99 1009.3
20260508053044 5 0 0.0 0.0 0.00 0.03 0.03 99
20260508052444 5 0 0.0 0.0 0.00 0.03 0.03 98 1009.4
20260508051846 5 0 0.0 0.0 0.00 0.03 0.03 97 1009.2
20260508051244 5 0 0.0 0.0 0.03 0.03 0.03 97 1009.2
20260508050644 5 0 0.0 0.0 0.03 0.03 0.03 95 1009.2
20260508050044 6 0 0.0 0.0 0.03 0.03 0.03 95 1009.1
20260508045444 6 0 0.0 0.0 0.03 0.03 0.03 93 1009.1
20260508044844 6 0 0.0 0.0 0.03 0.03 0.03 92 1009.3
20260508044245 6 0 0.0 0.0 0.03 0.03 0.03 91 1009.3
20260508043645 6 0 0.0 0.0 0.03 0.03 0.03 90 1009.3
20260508043044 6 0 0.0 0.0 0.03 0.03 0.03 89 1009.4
20260508042444 6 0 0.0 0.0 0.03 0.03 0.03 85 1009.4
20260508041844 6 0 0.0 0.0 0.00 0.00 0.00 82 1009.4
20260508041244 6 0 0.0 0.0 0.00 0.00 0.00 79 1009.7
20260508040644 7 0 0.0 0.0 0.00 0.00 0.00 77 1009.8
20260508040044 7 270 0.0 3.2 0.00 0.00 0.00 72 1009.7
20260508035444 8 331 0.0 11.3 0.00 0.00 0.00 60 1009.4
20260508034844 8 0 0.0 0.0 0.00 0.00 0.00 56 1009.2
20260508034245 8 0 0.0 0.0 0.00 0.00 0.00 54 1009.1
20260508033644 8 0 0.0 0.0 0.00 0.00 0.00 54 1009.0
20260508033044 8 0 0.0 0.0 0.00 0.00 0.00 54 1008.7
20260508032445 8 0 0.0 0.0 0.00 0.00 0.00 53 1008.8
20260508031844 8 0 0.0 0.0 0.00 0.00 0.00 52 1008.8
20260508031244 8 0 0.0 0.0 0.00 0.00 0.00 52 1008.9
20260508030644 8 0 0.0 0.0 0.00 0.00 0.00 52 1008.9
20260508030044 8 0 0.0 0.0 0.00 0.00 0.00 52 1009.0
20260508025444 9 0 0.0 0.0 0.00 0.00 0.00 51 1009.1
20260508024844 9 0 0.0 0.0 0.00 0.00 0.00 51 1009.0
20260508024245 9 0 0.0 0.0 0.00 0.00 0.00 51 1009.0
20260508023644 9 0 0.0 0.0 0.00 0.00 0.00 50 1009.1
20260508023046 9 0 0.0 0.0 0.00 0.00 0.00 49 1009.1
20260508022444 10 300 0.0 3.2 0.00 0.00 0.00 49 1008.8
20260508021844 9 0 0.0 0.0 0.00 0.00 0.00 50 1008.9
20260508021244 10 0 0.0 0.0 0.00 0.00 0.00 49 1008.7
20260508020644 9 268 0.0 3.2 0.00 0.00 0.00 50 1008.8
20260508020044 9 0 0.0 0.0 0.00 0.00 0.00 51 1008.8
20260508015444 9 270 0.0 3.2 0.00 0.00 0.00 50 1008.7
20260508014844 9 0 0.0 0.0 0.00 0.00 0.00 50 1008.8
20260508014244 10 0 0.0 0.0 0.00 0.00 0.00 50 1008.8
20260508013644 10 0 0.0 0.0 0.00 0.00 0.00 48 1008.7
20260508013044 10 0 0.0 0.0 0.00 0.00 0.00 48 1008.5
20260508012444 10 0 0.0 0.0 0.00 0.00 0.00 48 1008.5
20260508011844 10 0 0.0 0.0 0.00 0.00 0.00 44 1008.4
20260508011244 10 0 0.0 0.0 0.00 0.00 0.00 43 1008.3
20260508010644 10 0 0.0 0.0 0.00 0.00 0.00 42 1008.4
20260508010044 10 264 0.0 3.2 0.00 0.00 0.00 42 1008.4
20260508005444 10 294 0.0 3.2 0.00 0.00 0.00 42 1008.2
20260508004844 10 252 0.0 8.0 0.00 0.00 0.00 41 1008.3
20260508004244 10 238 3.2 16.1 0.00 0.00 0.00 38 1008.2
20260508003645 11 201 1.6 16.1 0.00 0.00 0.00 35 1008.2
20260508003044 11 268 0.0 8.0 0.00 0.00 0.00 34 1008.1
20260508002444 11 272 0.0 8.0 0.00 0.00 0.00 34 1007.8
20260508001844 11 240 0.0 8.0 0.00 0.00 0.00 34 1007.8
20260508001245 11 303 0.0 3.2 0.00 0.00 0.00 33 1007.7
20260508000644 11 270 0.0 8.0 0.00 0.00 0.00 33 1007.8
20260508000044 11 309 0.0 8.0 0.00 0.00 0.00 33 1007.8
20260507235444 11 278 0.0 8.0 0.00 0.00 0.00 33 1007.7
20260507234844 11 277 1.6 8.0 0.00 0.00 0.00 33 1007.7
20260507234244 11 292 0.0 8.0 0.00 0.00 0.00 31 1007.7
20260507233644 11 267 1.6 11.3 0.00 0.00 0.00 31 1007.8
20260507233044 11 307 0.0 8.0 0.00 0.00 0.00 31 1007.8
20260507232444 11 293 0.0 3.2 0.00 0.00 0.00 31 1007.9
20260507231844 11 291 1.6 8.0 0.00 0.00 0.00 31 1007.9
20260507231244 11 298 0.0 3.2 0.00 0.00 0.00 31 1007.8
20260507230644 12 279 0.0 3.2 0.00 0.00 0.00 30 1007.7
20260507230044 12 271 3.2 16.1 0.00 0.00 0.00 30 1007.7
20260507225444 12 295 0.0 8.0 0.00 0.00 0.00 29 1007.7
20260507224844 12 296 4.8 16.1 0.00 0.00 0.00 29 1007.7
20260507224244 12 288 3.2 11.3 0.00 0.00 0.00 32 1007.8
20260507223818 13 280 1.6 11.3 0.00 0.00 0.00 32 1007.7
20260507223644 13 280 1.6 11.3 0.00 0.00 0.00 32 1007.7
20260507223044 13 278 1.6 8.0 0.00 0.00 0.00 32 1007.7
20260507222444 12 276 3.2 16.1 0.00 0.00 0.00 30 1007.9
20260507221844 11 289 1.6 11.3 0.00 0.00 0.00 30 1008.1
20260507220644 12 270 4.8 11.3 0.00 0.00 0.00 30 1008.0
20260507220044 11 282 1.6 11.3 0.00 0.00 0.00 29 1008.0
20260507214844 12 275 4.8 16.1 0.00 0.00 0.00 29 1007.9